User: anonymous   Login
Location: Unspecified
(0.0000°N, 0.0000°E)
Time: 15:07:35
(UTC+00:00)
Language:

SJ-6F - Orbit

View from above orbital plane
View from above orbital plane
View from above satellite
View from above satellite

Ground track
Ground track

The orbit data is extracted from the following two-line orbital elements,

1 33409U 08053B   21269.08263928 -.00000175  00000-0 -10557-4 0  9990
2 33409  97.8001 248.9264 0017237  39.0078 321.2397 14.95119411704349
Epoch (UTC): 26 September 2021 01:59:00
Eccentricity: 0.0017237
inclination: 97.8001°
perigee height: 570 km
apogee height: 594 km
right ascension of ascending node: 248.9264°
argument of perigee: 39.0078°
revolutions per day: 14.95119411
mean anomaly at epoch: 321.2397°
orbit number at epoch: 70434

The dashed part of the orbit path shows where the satellite is in the earth's shadow,  

DLR